TYA233 URKK-UNKL

Flight info

Callsign TYA233
Flight time N/A
Altitude 35000
Route UH6V UH B145 ER G128 UROBO T692 LANUD T763 ABALI L158 PEMAG B956 ML A300 KENGA G827 TOKMO A300 ROTLI DCT RANET RANET2S
Aircraft B738/M-SDE2E3FGHIRWXY/LB1

Departure

Time N/A
Airport Krasnodar Pashkovsky International Airport (URKK)

Arrival

Time 2026-04-30 10:52
Airport Krasnoyarsk International Airport (UNKL)
Time Latitude Longitude Altitude Speed Heading
2026-04-30 10:21 56.32646 88.98898 35197 ft 465 kts 90°
2026-04-30 10:22 56.32326 89.10616 35201 ft 465 kts 90°
2026-04-30 10:22 56.32000 89.22166 35186 ft 457 kts 90°
2026-04-30 10:23 56.31660 89.33751 35205 ft 456 kts 90°
2026-04-30 10:24 56.31159 89.50152 34223 ft 449 kts 90°
2026-04-30 10:24 56.30980 89.55829 33779 ft 446 kts 90°
2026-04-30 10:24 56.30802 89.61371 33360 ft 442 kts 90°
2026-04-30 10:24 56.30622 89.66944 32968 ft 437 kts 90°
2026-04-30 10:25 56.30443 89.72390 32567 ft 434 kts 90°
2026-04-30 10:25 56.30263 89.77784 32196 ft 430 kts 90°
2026-04-30 10:25 56.30083 89.83143 31805 ft 427 kts 89°
2026-04-30 10:25 56.29902 89.88464 31423 ft 424 kts 89°
2026-04-30 10:26 56.29720 89.93741 31048 ft 421 kts 89°
2026-04-30 10:26 56.29537 89.98976 30681 ft 418 kts 89°
2026-04-30 10:26 56.29353 90.04176 30309 ft 415 kts 89°
2026-04-30 10:26 56.29168 90.09342 29881 ft 412 kts 89°
2026-04-30 10:27 56.28982 90.14477 29484 ft 408 kts 89°
2026-04-30 10:27 56.28796 90.19544 29107 ft 404 kts 89°
2026-04-30 10:27 56.28610 90.24569 28717 ft 401 kts 89°
2026-04-30 10:27 56.28424 90.29544 28333 ft 397 kts 89°
2026-04-30 10:28 56.28237 90.34488 27957 ft 394 kts 89°
2026-04-30 10:28 56.28050 90.39395 27582 ft 391 kts 89°
2026-04-30 10:28 56.27863 90.44246 27206 ft 388 kts 89°
2026-04-30 10:28 56.27739 90.47452 26951 ft 386 kts 89°
2026-04-30 10:29 56.27488 90.53877 26483 ft 383 kts 89°
2026-04-30 10:29 56.27298 90.58642 26110 ft 381 kts 89°
2026-04-30 10:29 56.27209 90.63369 25821 ft 373 kts 82°
2026-04-30 10:29 56.27305 90.67990 25557 ft 367 kts 81°
2026-04-30 10:30 56.27430 90.72565 25226 ft 365 kts 81°
2026-04-30 10:30 56.27558 90.77124 24883 ft 363 kts 81°
2026-04-30 10:30 56.27678 90.81651 24542 ft 362 kts 81°
2026-04-30 10:30 56.27754 90.84671 24305 ft 361 kts 81°
2026-04-30 10:31 56.27899 90.90741 23820 ft 361 kts 81°
2026-04-30 10:31 56.27967 90.93734 23528 ft 360 kts 81°
2026-04-30 10:31 56.28099 90.99679 23031 ft 358 kts 82°
2026-04-30 10:31 56.28165 91.02708 22769 ft 357 kts 82°
2026-04-30 10:32 56.28260 91.07158 22412 ft 355 kts 82°
2026-04-30 10:32 56.28353 91.11595 22052 ft 353 kts 82°
2026-04-30 10:32 56.28310 91.16001 21721 ft 354 kts 90°
2026-04-30 10:32 56.27989 91.20467 21374 ft 354 kts 94°
2026-04-30 10:33 56.27588 91.24827 21030 ft 353 kts 94°
2026-04-30 10:33 56.27179 91.29172 20683 ft 351 kts 94°
2026-04-30 10:33 56.26786 91.33495 20334 ft 350 kts 94°
2026-04-30 10:33 56.26409 91.37819 19989 ft 348 kts 94°
2026-04-30 10:34 56.26045 91.42107 19646 ft 347 kts 94°
2026-04-30 10:34 56.25687 91.46386 19302 ft 345 kts 94°
2026-04-30 10:34 56.25332 91.50650 18962 ft 344 kts 94°
2026-04-30 10:34 56.24978 91.54901 18615 ft 344 kts 94°
2026-04-30 10:35 56.24623 91.59154 18230 ft 343 kts 94°
2026-04-30 10:35 56.24267 91.63380 17860 ft 341 kts 94°
2026-04-30 10:35 56.23922 91.67585 17500 ft 338 kts 91°
2026-04-30 10:35 56.24033 91.71715 17209 ft 326 kts 74°
2026-04-30 10:36 56.24482 91.75675 16888 ft 323 kts 72°
2026-04-30 10:36 56.24962 91.79621 16546 ft 321 kts 72°
2026-04-30 10:36 56.25435 91.83539 16219 ft 320 kts 73°
2026-04-30 10:36 56.25897 91.87448 15889 ft 319 kts 73°
2026-04-30 10:37 56.26349 91.91348 15558 ft 318 kts 73°
2026-04-30 10:37 56.26787 91.95192 15239 ft 317 kts 73°
2026-04-30 10:37 56.27229 91.99120 14904 ft 316 kts 74°
2026-04-30 10:37 56.27663 92.02993 14576 ft 315 kts 74°
2026-04-30 10:38 56.28095 92.06856 14253 ft 314 kts 74°
2026-04-30 10:38 56.28523 92.10710 13910 ft 314 kts 74°
2026-04-30 10:38 56.28950 92.14566 13543 ft 313 kts 74°
2026-04-30 10:38 56.29368 92.18398 13199 ft 312 kts 76°
2026-04-30 10:39 56.29426 92.22324 12858 ft 316 kts 93°
2026-04-30 10:39 56.29308 92.24021 12744 ft 315 kts 94°
2026-04-30 10:39 56.29037 92.27660 12440 ft 314 kts 94°
2026-04-30 10:39 56.28760 92.31549 12113 ft 313 kts 94°
2026-04-30 10:40 56.28501 92.35429 11790 ft 311 kts 94°
2026-04-30 10:40 56.28251 92.39290 11484 ft 310 kts 94°
2026-04-30 10:40 56.28006 92.43126 11158 ft 309 kts 94°
2026-04-30 10:40 56.27757 92.46965 10850 ft 307 kts 94°
2026-04-30 10:41 56.27511 92.50730 10550 ft 306 kts 94°
2026-04-30 10:41 56.27264 92.54557 10393 ft 299 kts 94°
2026-04-30 10:41 56.27029 92.58188 10251 ft 293 kts 95°
2026-04-30 10:41 56.26788 92.61841 9944 ft 294 kts 95°
2026-04-30 10:42 56.26547 92.65483 9637 ft 292 kts 95°
2026-04-30 10:42 56.26133 92.69048 9338 ft 293 kts 109°
2026-04-30 10:42 56.25345 92.72414 9085 ft 291 kts 114°
2026-04-30 10:42 56.24484 92.75771 8643 ft 295 kts 114°
2026-04-30 10:43 56.23635 92.79152 8283 ft 296 kts 114°
2026-04-30 10:43 56.22805 92.82531 7993 ft 295 kts 114°
2026-04-30 10:43 56.21983 92.85909 7677 ft 295 kts 114°
2026-04-30 10:43 56.21168 92.89287 7390 ft 294 kts 114°
2026-04-30 10:44 56.20359 92.92627 7265 ft 288 kts 114°
2026-04-30 10:44 56.19562 92.95906 7046 ft 286 kts 114°
2026-04-30 10:44 56.18634 92.99064 6721 ft 286 kts 131°
2026-04-30 10:44 56.17104 93.01231 6460 ft 279 kts 159°
2026-04-30 10:45 56.15240 93.01931 6130 ft 273 kts 185°
2026-04-30 10:45 56.13420 93.01304 5872 ft 262 kts 204°
2026-04-30 10:45 56.11766 93.00055 5611 ft 255 kts 207°
2026-04-30 10:45 56.10156 92.98786 5423 ft 246 kts 207°
2026-04-30 10:46 56.08655 92.97497 5134 ft 238 kts 219°
2026-04-30 10:46 56.07599 92.95313 4888 ft 226 kts 248°
2026-04-30 10:46 56.07248 92.92644 4643 ft 218 kts 270°
2026-04-30 10:46 56.07499 92.89999 4418 ft 215 kts 289°
2026-04-30 10:47 56.08053 92.87553 4310 ft 210 kts 293°
2026-04-30 10:47 56.08661 92.85202 4232 ft 204 kts 293°
2026-04-30 10:47 56.09221 92.82950 4148 ft 191 kts 292°
2026-04-30 10:47 56.09735 92.80832 3993 ft 178 kts 291°
2026-04-30 10:48 56.10189 92.78823 3974 ft 165 kts 291°
2026-04-30 10:48 56.10639 92.76981 4018 ft 165 kts 294°
2026-04-30 10:48 56.11190 92.75031 3695 ft 176 kts 295°
2026-04-30 10:48 56.11691 92.73090 3436 ft 165 kts 292°
2026-04-30 10:49 56.12470 92.69730 3025 ft 150 kts 291°
2026-04-30 10:49 56.13344 92.66030 2617 ft 140 kts 292°
2026-04-30 10:50 56.13730 92.64403 2360 ft 141 kts 293°
2026-04-30 10:50 56.14516 92.61202 1947 ft 147 kts 290°
2026-04-30 10:50 56.14868 92.59533 1794 ft 139 kts 292°
2026-04-30 10:51 56.15132 92.58468 1665 ft 135 kts 290°
2026-04-30 10:51 56.15584 92.56514 1449 ft 142 kts 292°
2026-04-30 10:51 56.15971 92.54902 1293 ft 143 kts 291°
2026-04-30 10:51 56.16361 92.53233 1148 ft 144 kts 293°
2026-04-30 10:52 56.16767 92.51549 965 ft 144 kts 292°
2026-04-30 10:52 56.17122 92.50058 952 ft 117 kts 292°
2026-04-30 10:52 56.17374 92.49002 951 ft 45 kts 293°
2026-04-30 10:52 56.17506 92.48683 951 ft 28 kts 324°
2026-04-30 10:53 56.17606 92.48553 954 ft 0 kts 324°
2026-04-30 10:54 56.17631 92.48521 953 ft 9 kts 324°
2026-04-30 10:54 56.17692 92.48445 954 ft 9 kts 326°
2026-04-30 10:54 56.17757 92.48403 953 ft 11 kts
2026-04-30 10:55 56.17806 92.48435 954 ft 12 kts 21°
2026-04-30 10:55 56.17893 92.48502 955 ft 10 kts 24°
2026-04-30 10:55 56.17926 92.48527 954 ft 6 kts 23°
2026-04-30 10:55 56.17943 92.48540 954 ft 0 kts 23°